This is the latest recevied weather packets stored in our database for station/object W7TJC. If no packets are shown the sender has not sent any weather packets the latest 10 day(s).
| Time | Temp. | Humidity | Pressure | Rain* | Wind** | Luminosity | Snow |
|---|---|---|---|---|---|---|---|
| 1777946453 | 21.11° C | 63% | 1011.2 hPa | 0 mm | - | 7 W/m² | - |
| 1777946150 | 21.11° C | 62% | 1011.2 hPa | 0 mm | - | 9 W/m² | - |
| 1777945847 | 21.67° C | 61% | 1011.1 hPa | 0 mm | - | 9 W/m² | - |
| 1777945544 | 21.67° C | 60% | 1011.2 hPa | 0 mm | - | 12 W/m² | - |
| 1777945241 | 21.67° C | 60% | 1011 hPa | 0 mm | - | 12 W/m² | - |
| 1777944938 | 22.22° C | 59% | 1010.8 hPa | 0 mm | - | 34 W/m² | - |
| 1777944636 | 22.22° C | 59% | 1011.1 hPa | 0 mm | - | 11 W/m² | - |
| 1777944334 | 22.22° C | 59% | 1011 hPa | 0 mm | - | 11 W/m² | - |
| 1777944030 | 22.78° C | 57% | 1011.1 hPa | 0 mm | - | 16 W/m² | - |
| 1777943725 | 22.78° C | 56% | 1011 hPa | 0 mm | - | 14 W/m² | - |
| 1777943423 | 22.78° C | 56% | 1010.9 hPa | 0 mm | - | 13 W/m² | - |
| 1777943118 | 22.78° C | 54% | 1011.1 hPa | 0 mm | - | 14 W/m² | - |
| 1777942815 | 22.78° C | 54% | 1010.8 hPa | 0 mm | - | 13 W/m² | - |
| 1777942512 | 23.33° C | 53% | 1011 hPa | 0 mm | - | 15 W/m² | - |
| 1777942209 | 23.33° C | 54% | 1011 hPa | 0 mm | - | 13 W/m² | - |
| 1777941906 | 23.33° C | 55% | 1011 hPa | 0 mm | - | 13 W/m² | - |
| 1777941603 | 23.33° C | 52% | 1011.1 hPa | 0 mm | - | 13 W/m² | - |
| 1777941300 | 23.89° C | 53% | 1011.1 hPa | 0 mm | - | 15 W/m² | - |
| 1777940996 | 23.89° C | 52% | 1010.9 hPa | 0 mm | - | 15 W/m² | - |
| 1777940692 | 23.89° C | 52% | 1011 hPa | 0 mm | - | 16 W/m² | - |
| 1777940391 | 23.89° C | 50% | 1010.8 hPa | 0 mm | - | 16 W/m² | - |
| 1777940088 | 23.89° C | 52% | 1010.9 hPa | 0 mm | - | 16 W/m² | - |
| 1777939785 | 23.89° C | 52% | 1010.8 hPa | 0 mm | - | 18 W/m² | - |
| 1777939483 | 23.89° C | 51% | 1011 hPa | 0 mm | - | 19 W/m² | - |
| 1777939180 | 23.89° C | 53% | 1010.9 hPa | 0 mm | - | 17 W/m² | - |
* Rain latest hour (hover to see other rain measurements)
** Current wind speed in m/s (hover to see current wind gust speed)